Regional Weather Roundup
Issued by NWS

Home | Current Version | Previous Version | Text Only | Print | Product List | Glossary Off
Versions: 1 2 3 4 5 6 7 8 9 10 11 12 13 14 15 16 17 18 19 20 21 22 23 24 25 26 27 28 29 30 31 32 33 34 35 36 37 38 39 40 41 42 43 44 45 46 47 48 49 50

000
ASUS43 KIND 210159
RWRIN

WEATHER ROUNDUP FOR INDIANA
NATIONAL WEATHER SERVICE INDIANAPOLIS IN
900 PM EST FRI JAN 20 2017

NOTE: "FAIR" INDICATES FEW OR NO CLOUDS BELOW 12,000 FEET WITH NO
SIGNIFICANT WEATHER AND/OR OBSTRUCTIONS TO VISIBILITY.

* - STATION DOES NOT REPORT WEATHER SUCH AS PRECIPITATION OR FOG.

+ - STATION NOT QUALITY CONTROLLED BY THE NATIONAL WEATHER SERVICE.
    USE DATA WITH CAUTION...ESPECIALLY DEWPOINT AND RELATIVE
    HUMIDITY OBSERVATIONS.

INZ001>003-010>013-019-020-210300-
NORTHWEST INDIANA

CITY           SKY/WX    TMP DP  RH WIND       PRES   REMARKS
GARY /AIRPORT/ CLOUDY    46  46 100 VRB5      29.66F FOG
MONTICELLO +   CLOUDY    48  46  95 CALM      29.68S
VALPARAISO     CLOUDY    46  46 100 SE6       29.68R FOG

$$

LMZ046-743>745-210300-
SOUTHERN LAKE MICHIGAN

STATION/POSITION TIME  TEMP    WIND        PRES    WAVE
                       AIR SEA DIR/SP/G            HT
                 (UTC) (F)     (DEG/KT/KT) (MB)    (FT)
BURNS HARBOR     0109   48     160/  9/ 15 1005.4
MICHIGAN CITY    0130   47     140/  7/  9   N/A

$$

INZ004-005-014>016-021>024-210300-
NORTH CENTRAL INDIANA

CITY           SKY/WX    TMP DP  RH WIND       PRES   REMARKS
ELKHART        CLOUDY    45  45 100 S5        29.70F FOG
GOSHEN         CLOUDY    46  43  89 S6        29.70S
SOUTH BEND     CLOUDY    44  44 100 SE5       29.69F

$$

INZ006>009-017-018-025>027-210300-
NORTHEAST INDIANA

CITY           SKY/WX    TMP DP  RH WIND       PRES   REMARKS
ANGOLA *+      CLOUDY    43  41  93 CALM      29.71F
FORT WAYNE     CLOUDY    48  45  89 E3        29.73S
KENDALLVILLE + CLOUDY    46  46 100 S3        29.72S FOG

$$

INZ028-029-035-036-043>045-051>053-210300-
WEST CENTRAL INDIANA

CITY           SKY/WX    TMP DP  RH WIND       PRES   REMARKS
CRAWFORDSVL +  CLOUDY    48  48 100 SE7       29.68S
LAFAYETTE      CLOUDY    49  47  93 E6        29.67S
TERRE HAUTE    MOCLDY    53  49  86 S7        29.67S

$$

INZ030>032-037>040-046>048-054>057-064-065-210300-
CENTRAL INDIANA

CITY           SKY/WX    TMP DP  RH WIND       PRES   REMARKS
COLUMBUS       MOCLDY    48  48 100 SE6       29.71F
INDIANAPOLIS   CLOUDY    53  48  83 SE9       29.70R
-EAGLE CREEK   CLOUDY    53  47  79 SE5       29.69S
KOKOMO +       CLOUDY    48  46  93 SE6       29.71S
MT COMFORT *+  CLOUDY    50  48  93 SE5       29.71S
SHELBYVILLE    CLOUDY    52  47  83 SE7       29.70F

$$

INZ033-034-041-042-049-050-058-059-210300-
EAST CENTRAL INDIANA

CITY           SKY/WX    TMP DP  RH WIND       PRES   REMARKS
MUNCIE         CLOUDY    53  47  79 SE7       29.71F

$$

INZ060-061-067>069-081>083-085>088-210300-
SOUTHWEST INDIANA

CITY           SKY/WX    TMP DP  RH WIND       PRES   REMARKS
EVANSVILLE     CLEAR     57  51  80 SE6       29.69S
HUNTINGBURG *+ PTCLDY    55  51  86 S3        29.70F

$$

INZ062-063-066-070>080-084-089>092-210300-
SOUTH CENTRAL AND SOUTHEAST INDIANA

CITY           SKY/WX    TMP DP  RH WIND       PRES   REMARKS
BLOOMINGTON    MOCLDY    54  48  80 SE8       29.69S
MADISON *+     MOCLDY    54  46  76 E5        29.74S
SEYMOUR +      CLOUDY    54  48  82 CALM      29.72R

$$




USA.gov is the U.S. government's official web portal to all federal, state and local government web resources and services.